Location: A�t Lahcen
(32.8243°N, 5.4246°W)
Time: 00:22:11
(UTC+00:00)

MOS 1 Rocket - Pass Details

Date: 27 January 2021
Orbit: 614 x 830 km, 97.4° (Epoch: 27 February)

Event Time Altitude Azimuth Distance (km) Brightness Sun altitude
Rises 05:46:36 0° 164° (SSE) 3,216 7.1 -19.7°
Reaches altitude 10° 05:48:58 10° 163° (SSE) 2,262 6.3 -19.2°
Maximum altitude 05:53:55 79° 78° (ENE) 734 3.4 -18.1°
Drops below altitude 10° 05:58:37 10° 352° (N) 2,136 5.6 -17.2°
Sets 06:00:47 0° 351° (N) 3,023 6.4 -16.7°
